Regional Weather Roundup
Issued by NWS

Home | Current Version | Previous Version | Graphics & Text | Print | Product List | Glossary On
Versions: 1 2 3 4 5 6 7 8 9 10 11 12 13 14 15 16 17 18 19 20 21 22 23 24 25 26 27 28 29 30 31 32 33 34 35 36 37 38 39 40 41 42 43 44 45 46 47 48 49 50
000
ASUS43 KBIS 010220
RWRND

NORTH DAKOTA REGIONAL WEATHER ROUNDUP
NATIONAL WEATHER SERVICE BISMARCK ND
900 PM CDT TUE SEP 30 2014

NOTE: "FAIR" INDICATES FEW OR NO CLOUDS BELOW 12,000 FEET WITH NO
SIGNIFICANT WEATHER AND/OR OBSTRUCTIONS TO VISIBILITY.


NDZ001>003-009>011-017-010300-
NORTHWEST NORTH DAKOTA

CITY           SKY/WX    TMP DP  RH WIND       PRES   REMARKS
WILLISTON      LGT RAIN  51  50  96 NE3       29.51F FOG
MINOT          HVY RAIN  51  50  96 NE8       29.48F FOG
MINOT AFB      LGT RAIN  52  52 100 E10       29.49F FOG
$$

NDZ018>021-031>035-040>046-010300-
SOUTHWEST NORTH DAKOTA

CITY           SKY/WX    TMP DP  RH WIND       PRES   REMARKS
BISMARCK       LGT RAIN  55  55 100 E9        29.36S FOG
DICKINSON      CLOUDY    51  49  92 NW10      29.48R
GARRISON         N/A     52  50  93 E12G21    29.43F
HETTINGER ARPT CLOUDY    52  50  93 W16       29.52R
$$

NDZ004>008-012>016-024-026-027-054-010300-
NORTHEAST NORTH DAKOTA

CITY           SKY/WX    TMP DP  RH WIND       PRES   REMARKS
GRAND FORKS    CLOUDY    58  48  69 SE15      29.64S
GRND FRKS AFB  CLOUDY    57  50  79 SE18G26   29.63F
DEVILS LAKE    CLOUDY    54  46  76 SE23      29.51F
$$

NDZ022-023-025-028>030-036>039-047>053-010300-
SOUTHEAST NORTH DAKOTA

CITY           SKY/WX    TMP DP  RH WIND       PRES   REMARKS
FARGO          CLOUDY    60  49  66 SE20G32   29.64S
JAMESTOWN      CLOUDY    56  52  86 SE29G36   29.48F
$$




USA.gov is the U.S. government's official web portal to all federal, state and local government web resources and services.